TimeCDT,TemperatureF,Dew PointF,Humidity,Sea Level PressureIn,VisibilityMPH,Wind Direction,Wind SpeedMPH,Gust SpeedMPH,PrecipitationIn,Events,Conditions,WindDirDegrees,DateUTC
12:15 AM,55.6,52.3,89,29.94,10.0,North,8.1,-,N/A,,Overcast,10,2013-10-07 05:15:00
12:35 AM,55.8,52.0,87,29.94,10.0,North,9.2,-,N/A,,Overcast,10,2013-10-07 05:35:00
12:55 AM,55.9,51.6,85,29.95,10.0,North,6.9,-,N/A,,Overcast,360,2013-10-07 05:55:00
1:15 AM,56.3,51.3,83,29.95,10.0,North,4.6,-,N/A,,Overcast,10,2013-10-07 06:15:00
1:35 AM,56.1,51.3,84,29.95,10.0,North,5.8,-,N/A,,Scattered Clouds,360,2013-10-07 06:35:00
1:55 AM,55.2,51.3,87,29.95,10.0,North,4.6,-,N/A,,Clear,10,2013-10-07 06:55:00
2:15 AM,54.5,51.4,89,29.95,10.0,NNE,3.5,-,N/A,,Clear,20,2013-10-07 07:15:00
2:35 AM,53.6,51.4,92,29.95,10.0,Calm,Calm,-,N/A,,Clear,0,2013-10-07 07:35:00
2:55 AM,53.1,51.4,94,29.95,10.0,Calm,Calm,-,N/A,,Clear,0,2013-10-07 07:55:00
3:15 AM,52.2,51.1,96,29.95,10.0,Calm,Calm,-,N/A,,Clear,0,2013-10-07 08:15:00
3:35 AM,51.3,50.5,97,29.95,10.0,Calm,Calm,-,N/A,,Clear,0,2013-10-07 08:35:00
3:55 AM,51.3,50.9,99,29.95,10.0,Calm,Calm,-,N/A,,Clear,0,2013-10-07 08:55:00
4:15 AM,50.9,50.4,98,29.96,10.0,Calm,Calm,-,N/A,,Clear,0,2013-10-07 09:15:00
4:35 AM,51.3,50.9,99,29.97,10.0,Calm,Calm,-,N/A,,Mostly Cloudy,0,2013-10-07 09:35:00
4:55 AM,52.0,51.8,99,29.97,4.0,NNW,3.5,-,N/A,,Overcast,340,2013-10-07 09:55:00
5:15 AM,52.7,52.5,99,29.97,10.0,NNW,4.6,-,N/A,,Overcast,340,2013-10-07 10:15:00
5:35 AM,52.7,52.0,97,29.97,10.0,North,5.8,-,N/A,,Overcast,350,2013-10-07 10:35:00
5:55 AM,52.7,51.8,97,29.97,10.0,North,4.6,-,N/A,,Overcast,360,2013-10-07 10:55:00
6:15 AM,52.3,51.4,97,29.97,10.0,North,5.8,-,N/A,,Overcast,360,2013-10-07 11:15:00
6:35 AM,52.3,51.1,95,29.98,10.0,North,6.9,-,N/A,,Overcast,360,2013-10-07 11:35:00
6:55 AM,52.0,50.7,95,29.98,10.0,NNE,6.9,-,N/A,,Overcast,20,2013-10-07 11:55:00
7:15 AM,52.0,50.5,95,29.99,10.0,North,8.1,-,N/A,,Overcast,10,2013-10-07 12:15:00
7:35 AM,52.0,50.4,94,29.99,10.0,NNE,6.9,-,N/A,,Scattered Clouds,20,2013-10-07 12:35:00
7:55 AM,53.1,50.4,91,30.00,10.0,North,5.8,-,N/A,,Clear,10,2013-10-07 12:55:00
8:15 AM,54.1,50.4,87,30.01,10.0,North,5.8,-,N/A,,Clear,360,2013-10-07 13:15:00
8:35 AM,55.4,49.5,80,30.02,10.0,NNE,6.9,-,N/A,,Clear,20,2013-10-07 13:35:00
8:55 AM,56.8,47.8,72,30.02,10.0,NNE,8.1,-,N/A,,Clear,20,2013-10-07 13:55:00
9:15 AM,57.9,46.6,66,30.02,10.0,NNE,10.4,-,N/A,,Clear,20,2013-10-07 14:15:00
9:35 AM,59.2,46.2,62,30.02,10.0,North,8.1,-,N/A,,Clear,360,2013-10-07 14:35:00
10:15 AM,61.3,45.3,56,30.03,10.0,North,8.1,-,N/A,,Clear,350,2013-10-07 15:15:00
10:35 AM,62.4,45.1,53,30.03,10.0,North,11.5,17.3,N/A,,Clear,360,2013-10-07 15:35:00
10:55 AM,62.8,45.3,53,30.03,10.0,North,11.5,-,N/A,,Clear,360,2013-10-07 15:55:00
11:15 AM,63.5,45.5,52,30.03,10.0,North,10.4,17.3,N/A,,Clear,10,2013-10-07 16:15:00
11:35 AM,64.6,45.1,49,30.03,10.0,NNW,11.5,16.1,N/A,,Clear,340,2013-10-07 16:35:00
11:55 AM,64.4,44.8,49,30.03,10.0,North,5.8,-,N/A,,Clear,350,2013-10-07 16:55:00
12:15 PM,65.1,45.3,49,30.03,10.0,NNW,8.1,-,N/A,,Clear,330,2013-10-07 17:15:00
12:35 PM,65.7,45.5,48,30.02,10.0,NNW,10.4,16.1,N/A,,Clear,340,2013-10-07 17:35:00
12:55 PM,66.0,44.8,46,30.03,10.0,North,9.2,16.1,N/A,,Clear,360,2013-10-07 17:55:00
1:15 PM,66.2,44.8,46,30.02,10.0,North,9.2,-,N/A,,Clear,10,2013-10-07 18:15:00
1:35 PM,67.1,45.0,45,30.01,10.0,North,6.9,-,N/A,,Clear,350,2013-10-07 18:35:00
1:55 PM,67.6,45.5,45,30.01,10.0,NNW,9.2,18.4,N/A,,Clear,330,2013-10-07 18:55:00
2:15 PM,67.6,45.5,45,30.01,10.0,NNW,12.7,20.7,N/A,,Clear,340,2013-10-07 19:15:00
2:35 PM,68.0,45.9,45,30.01,10.0,NW,10.4,16.1,N/A,,Clear,320,2013-10-07 19:35:00
2:55 PM,67.6,45.7,45,30.01,10.0,North,9.2,17.3,N/A,,Clear,350,2013-10-07 19:55:00
4:15 PM,67.5,46.2,46,30.01,10.0,North,8.1,-,N/A,,Clear,350,2013-10-07 21:15:00
4:35 PM,67.1,46.6,48,30.01,10.0,North,10.4,16.1,N/A,,Clear,350,2013-10-07 21:35:00
4:55 PM,67.1,47.1,49,30.01,10.0,North,8.1,-,N/A,,Clear,350,2013-10-07 21:55:00
5:15 PM,66.4,47.3,50,30.01,10.0,North,8.1,-,N/A,,Clear,10,2013-10-07 22:15:00
5:35 PM,65.7,47.3,51,30.02,10.0,North,4.6,-,N/A,,Clear,350,2013-10-07 22:35:00
5:55 PM,64.6,47.7,54,30.02,10.0,North,4.6,-,N/A,,Clear,10,2013-10-07 22:55:00
6:15 PM,62.8,48.2,59,30.02,10.0,North,4.6,-,N/A,,Clear,350,2013-10-07 23:15:00
6:35 PM,60.8,47.8,62,30.03,10.0,North,3.5,-,N/A,,Clear,10,2013-10-07 23:35:00
6:55 PM,59.2,48.0,66,30.03,10.0,North,3.5,-,N/A,,Clear,350,2013-10-07 23:55:00
7:15 PM,58.1,48.2,70,30.03,10.0,North,4.6,-,N/A,,Clear,360,2013-10-08 00:15:00
7:35 PM,57.9,48.2,70,30.04,10.0,North,5.8,-,N/A,,Clear,10,2013-10-08 00:35:00
7:55 PM,57.2,48.2,72,30.05,10.0,NNE,5.8,-,N/A,,Clear,20,2013-10-08 00:55:00
8:15 PM,56.5,48.2,74,30.06,10.0,North,6.9,-,N/A,,Clear,10,2013-10-08 01:15:00
8:35 PM,56.3,48.2,74,30.06,10.0,North,6.9,-,N/A,,Clear,10,2013-10-08 01:35:00
8:55 PM,56.3,48.2,74,30.07,10.0,North,4.6,-,N/A,,Clear,360,2013-10-08 01:55:00
9:15 PM,55.8,48.2,76,30.08,10.0,NNE,4.6,-,N/A,,Clear,30,2013-10-08 02:15:00
9:35 PM,54.0,48.2,81,30.08,10.0,North,4.6,-,N/A,,Clear,10,2013-10-08 02:35:00
9:55 PM,54.3,48.0,79,30.08,10.0,North,6.9,-,N/A,,Clear,10,2013-10-08 02:55:00
10:15 PM,54.7,47.8,78,30.09,10.0,NNE,6.9,-,N/A,,Clear,20,2013-10-08 03:15:00
10:35 PM,54.3,47.8,79,30.09,10.0,North,6.9,-,N/A,,Clear,10,2013-10-08 03:35:00
10:55 PM,54.5,47.5,77,30.09,10.0,North,6.9,-,N/A,,Clear,10,2013-10-08 03:55:00
11:15 PM,54.0,47.5,79,30.09,10.0,North,5.8,-,N/A,,Clear,360,2013-10-08 04:15:00
11:35 PM,53.4,47.3,80,30.08,10.0,North,5.8,-,N/A,,Clear,350,2013-10-08 04:35:00
11:55 PM,52.7,47.3,82,30.08,10.0,North,4.6,-,N/A,,Clear,360,2013-10-08 04:55:00